Middle Georgia Regional Airport Macon US
ICAO: KMCN
IATA: MCN
Category: Medium
Scheduled Services: Yes

Elevation: 354 ft
TransAlt. 18000 ft.

Airport Communications:
ATLANTA APP/DEP:118.95
ASOS:120.775
ATIS:120.775
CTAF:128.2
GND:121.65
MACON RDO:122.2
MACON TWR:128.2
UNICOM:122.95

KMCN Zoom In..

If you have problems with the map follow the link
https://www.worldairports.se/pages/airport.php?
ICAO=KMCN

Runways:

(A) RW 05 length 6501 ft width 150 ft
ILS 109.50 / hdg 51

(B) RW 13 length 5000 ft width 150 ft
---- / hdg 133

(C) RW 23 length 6501 ft width 150 ft
---- / hdg 231

(D) RW 31 length 5000 ft width 150 ft
---- / hdg 313

Location; KMCN
Day. 17 / Time. 02.53 Zulu
* Altimeter: 30.17
* Temperature: 05° c. 41°f.
* Wind from: 280° Speed 05 kn.
Dewpoint: 04° c.
Visibility: 10 Statute Miles.
Clouds: Clear (automated report).

KMCN 170253Z AUTO 28005KT 10SM CLR 05/04 A3017 RMK AO2 SLP215 T00500044 51007


Wind From 280°
Speed 05 kn.

 
 
jpsmedia.com for Web Design worldairports.se 2018   terms of use